Weather History for Reno, NV

Change the Weather History Date:

Thursday, April 4, 2013

  Actual Average Record
Temperature  
Mean Temperature 56 °F 48 °F  
Max Temperature 65 °F 61 °F 80 °F (1959)
Min Temperature 46 °F 36 °F 15 °F (1945)
Degree Days  
Heating Degree Days 9 17  
Month to date heating degree days 47 68  
Since 1 July heating degree days 4008 4304  
Cooling Degree Days 0 0  
Month to date cooling degree days 0 0  
Year to date cooling degree days 0 0  
Growing Degree Days 6 (Base 50)    
Moisture  
Dew Point 34 °F    
Average Humidity 45    
Maximum Humidity 56    
Minimum Humidity 34    
Precipitation  
Precipitation T in 0.02 in 0.20 in (2006)
Month to date precipitation T 0.07  
Year to date precipitation 0.41 2.88  
Snow  
Snow 0.00 in 0.00 in 1.00 in (1975)
Month to date snowfall 0.0 0.1  
Since 1 July snowfall 9.4 21.1  
Snow Depth 0.00 in    
Sea Level Pressure  
Sea Level Pressure 29.93 in    
Wind  
Wind Speed 8 mph (WSW)    
Max Wind Speed 28 mph    
Max Gust Speed 32 mph    
Visibility 10 miles    
Events Rain    
T = Trace of Precipitation, MM = Missing Value Source: NWS Daily Summary

Daily Weather History Graph

Daily Weather History Graph

Search for Another Location

Airport:

Trip Planner

Search our weather history database for the weather conditions in past years. The results will help you decide how hot, cold, wet, or windy it might be!

Date:

Astronomy

Apr. 04, 2013 Rise Set
Actual Time 6:38 AM PDT 7:26 PM PDT
Civil Twilight 6:10 AM PDT 7:53 PM PDT
Nautical Twilight 5:38 AM PDT 8:26 PM PDT
Astronomical Twilight 5:05 AM PDT 8:59 PM PDT
Moon 3:06 AM PDT (4/4) 1:51 PM PDT (4/4)
Length of Visible Light 13h 42m
Length of Day
12h 48m
Waning Crescent, 32% of the Moon is Illuminated
Apr 4
Waning Crescent
Apr 10
New
Apr 18
First Quarter
Apr 25
Full
May 2
Last Quarter

Hourly Weather History & Observations

Time (PDT) Temp. Dew Point Humidity Pressure Visibility Wind Dir Wind Speed Gust Speed Precip Events Conditions
12:55 AM 53.1 °F 32.0 °F 45% 29.95 in 10.0 mi Calm Calm - N/A   Partly Cloudy
1:55 AM 50.0 °F 32.0 °F 50% 29.94 in 10.0 mi Calm Calm - N/A   Clear
2:55 AM 48.9 °F 32.0 °F 52% 29.91 in 10.0 mi Calm Calm - N/A   Scattered Clouds
3:55 AM 48.9 °F 32.0 °F 52% 29.90 in 10.0 mi Variable 3.5 mph - N/A   Scattered Clouds
4:55 AM 48.0 °F 34.0 °F 58% 29.89 in 10.0 mi Calm Calm - N/A   Clear
5:55 AM 48.9 °F 34.0 °F 56% 29.88 in 10.0 mi East 5.8 mph - N/A   Scattered Clouds
6:55 AM 52.0 °F 32.0 °F 47% 29.86 in 10.0 mi Calm Calm - N/A   Mostly Cloudy
7:55 AM 52.0 °F 32.0 °F 47% 29.89 in 10.0 mi Calm Calm - N/A   Mostly Cloudy
8:22 AM 57.2 °F 30.2 °F 36% 29.98 in 10.0 mi SSW 16.1 mph - N/A   Mostly Cloudy
8:55 AM 59.0 °F 32.0 °F 36% 29.88 in 10.0 mi SW 18.4 mph 24.2 mph N/A   Mostly Cloudy
9:55 AM 55.0 °F 39.0 °F 55% 29.95 in 10.0 mi WNW 15.0 mph 20.7 mph N/A   Mostly Cloudy
10:55 AM 57.9 °F 37.9 °F 47% 29.95 in 10.0 mi Calm Calm - N/A   Mostly Cloudy
11:55 AM 59.0 °F 36.0 °F 42% 29.94 in 10.0 mi South 18.4 mph 23.0 mph N/A   Mostly Cloudy
12:55 PM 64.9 °F 35.1 °F 33% 29.91 in 10.0 mi SSW 17.3 mph 27.6 mph N/A   Mostly Cloudy
1:55 PM 62.1 °F 35.1 °F 37% 29.92 in 10.0 mi Variable 3.5 mph - N/A   Mostly Cloudy
2:55 PM 64.0 °F 36.0 °F 35% 29.91 in 10.0 mi South 13.8 mph - N/A   Mostly Cloudy
3:55 PM 60.1 °F 37.0 °F 42% 29.92 in 10.0 mi Calm Calm - N/A   Overcast
4:55 PM 59.0 °F 37.9 °F 46% 29.92 in 10.0 mi WNW 6.9 mph - 0.00 in Rain Light Rain
5:55 PM 60.1 °F 36.0 °F 41% 29.91 in 10.0 mi SW 8.1 mph 21.9 mph 0.00 in   Overcast
6:55 PM 57.0 °F 33.1 °F 40% 29.92 in 10.0 mi SW 5.8 mph - N/A   Overcast
7:55 PM 54.0 °F 34.0 °F 47% 29.95 in 10.0 mi West 16.1 mph 26.5 mph N/A   Mostly Cloudy
8:55 PM 54.0 °F 30.0 °F 40% 29.95 in 10.0 mi West 17.3 mph 21.9 mph N/A   Mostly Cloudy
9:55 PM 53.1 °F 30.0 °F 41% 29.98 in 10.0 mi West 9.2 mph - N/A   Mostly Cloudy
10:55 PM 52.0 °F 28.9 °F 41% 29.97 in 10.0 mi WSW 11.5 mph - N/A   Mostly Cloudy
11:55 PM 48.9 °F 33.1 °F 54% 30.00 in 10.0 mi West 9.2 mph - N/A   Mostly Cloudy